N658KP KSXU-KGUP

Flight info

Callsign N658KP
Flight time 0h 58m
Altitude 10000
Route ACH V62 CABZO PTRRN HERET
Aircraft C310/L-SDFGR/S

Departure

Time 2026-04-26 05:07
Airport Santa Rosa Route 66 Airport (KSXU)

Arrival

Time 2026-04-26 06:05
Airport Gallup Municipal Airport (KGUP)
Time Latitude Longitude Altitude Speed Heading
2026-04-26 04:58 34.94024 -104.64133 4771 ft 0 kts 179°
2026-04-26 05:02 34.94019 -104.64134 4771 ft 1 kts 223°
2026-04-26 05:02 34.94014 -104.64169 4770 ft 5 kts 247°
2026-04-26 05:03 34.93986 -104.64220 4770 ft 7 kts 180°
2026-04-26 05:03 34.93973 -104.64219 4770 ft 0 kts 175°
2026-04-26 05:05 34.93962 -104.64218 4770 ft 3 kts 178°
2026-04-26 05:05 34.93952 -104.64217 4770 ft 4 kts 177°
2026-04-26 05:05 34.93937 -104.64204 4771 ft 4 kts 102°
2026-04-26 05:05 34.93937 -104.64146 4772 ft 8 kts 89°
2026-04-26 05:06 34.93939 -104.64024 4774 ft 13 kts 88°
2026-04-26 05:06 34.93940 -104.63896 4776 ft 10 kts 87°
2026-04-26 05:06 34.93934 -104.63834 4777 ft 6 kts 223°
2026-04-26 05:06 34.93940 -104.63894 4776 ft 18 kts 268°
2026-04-26 05:07 34.93924 -104.64592 4784 ft 117 kts 267°
2026-04-26 05:07 34.93881 -104.65855 5053 ft 150 kts 267°
2026-04-26 05:07 34.93809 -104.67220 5623 ft 151 kts 263°
2026-04-26 05:07 34.93640 -104.68545 6134 ft 150 kts 258°
2026-04-26 05:08 34.93346 -104.69946 6774 ft 144 kts 249°
2026-04-26 05:08 34.93335 -104.71240 7224 ft 149 kts 290°
2026-04-26 05:08 34.93980 -104.72300 7682 ft 148 kts 325°
2026-04-26 05:08 34.94846 -104.73059 8148 ft 149 kts 328°
2026-04-26 05:09 34.95776 -104.73837 8634 ft 151 kts 329°
2026-04-26 05:09 34.96796 -104.74685 9158 ft 153 kts 328°
2026-04-26 05:09 34.97799 -104.75553 9681 ft 155 kts 323°
2026-04-26 05:09 34.98699 -104.76691 9977 ft 173 kts 311°
2026-04-26 05:10 34.99514 -104.78091 10006 ft 192 kts 304°
2026-04-26 05:10 35.00252 -104.79588 10005 ft 202 kts 301°
2026-04-26 05:10 35.00941 -104.81097 9999 ft 207 kts 299°
2026-04-26 05:10 35.01643 -104.82662 9995 ft 211 kts 300°
2026-04-26 05:11 35.02362 -104.84239 10001 ft 212 kts 302°
2026-04-26 05:11 35.03095 -104.85843 9998 ft 214 kts 301°
2026-04-26 05:11 35.03819 -104.87450 10001 ft 215 kts 301°
2026-04-26 05:11 35.04538 -104.89082 9999 ft 216 kts 300°
2026-04-26 05:12 35.05249 -104.90687 9996 ft 217 kts 300°
2026-04-26 05:12 35.05968 -104.92304 10001 ft 216 kts 300°
2026-04-26 05:12 35.06687 -104.93932 10002 ft 216 kts 300°
2026-04-26 05:12 35.07399 -104.95542 9998 ft 217 kts 300°
2026-04-26 05:13 35.08115 -104.97159 10002 ft 217 kts 301°
2026-04-26 05:13 35.08843 -104.98809 9999 ft 217 kts 300°
2026-04-26 05:13 35.09556 -105.00427 9998 ft 217 kts 301°
2026-04-26 05:13 35.10308 -105.02125 9999 ft 216 kts 300°
2026-04-26 05:14 35.11103 -105.03929 10002 ft 216 kts 300°
2026-04-26 05:14 35.11889 -105.05730 9999 ft 216 kts 300°
2026-04-26 05:14 35.12658 -105.07523 9997 ft 216 kts 299°
2026-04-26 05:14 35.13426 -105.09335 10000 ft 217 kts 299°
2026-04-26 05:15 35.14191 -105.11131 10001 ft 217 kts 299°
2026-04-26 05:15 35.14957 -105.12935 9997 ft 217 kts 299°
2026-04-26 05:15 35.15722 -105.14739 10031 ft 215 kts 299°
2026-04-26 05:15 35.16452 -105.16468 10096 ft 214 kts 300°
2026-04-26 05:16 35.17166 -105.18155 10150 ft 213 kts 300°
2026-04-26 05:16 35.17884 -105.19855 10114 ft 216 kts 299°
2026-04-26 05:16 35.18638 -105.21636 10112 ft 216 kts 299°
2026-04-26 05:16 35.19394 -105.23423 10111 ft 216 kts 299°
2026-04-26 05:17 35.20139 -105.25183 10070 ft 218 kts 300°
2026-04-26 05:17 35.20862 -105.26895 10061 ft 218 kts 300°
2026-04-26 05:17 35.21580 -105.28589 10054 ft 218 kts 299°
2026-04-26 05:17 35.22284 -105.30249 10055 ft 217 kts 300°
2026-04-26 05:18 35.22990 -105.31926 10057 ft 217 kts 300°
2026-04-26 05:18 35.23681 -105.33566 10056 ft 217 kts 300°
2026-04-26 05:18 35.24387 -105.35233 10053 ft 217 kts 299°
2026-04-26 05:18 35.25087 -105.36890 10053 ft 217 kts 300°
2026-04-26 05:19 35.25782 -105.38545 10054 ft 217 kts 299°
2026-04-26 05:19 35.26472 -105.40187 10055 ft 217 kts 300°
2026-04-26 05:19 35.27163 -105.41818 10056 ft 216 kts 299°
2026-04-26 05:19 35.27857 -105.43481 10058 ft 217 kts 300°
2026-04-26 05:20 35.28556 -105.45136 10053 ft 217 kts 300°
2026-04-26 05:20 35.29293 -105.46890 10052 ft 217 kts 299°
2026-04-26 05:20 35.30034 -105.48654 10058 ft 217 kts 299°
2026-04-26 05:20 35.30777 -105.50424 10056 ft 217 kts 300°
2026-04-26 05:21 35.31525 -105.52211 10058 ft 217 kts 300°
2026-04-26 05:21 35.32285 -105.54022 10057 ft 217 kts 300°
2026-04-26 05:21 35.33043 -105.55825 10054 ft 217 kts 300°
2026-04-26 05:21 35.33815 -105.57667 10056 ft 217 kts 299°
2026-04-26 05:22 35.34564 -105.59460 10057 ft 217 kts 300°
2026-04-26 05:22 35.35276 -105.61162 10056 ft 217 kts 299°
2026-04-26 05:22 35.36000 -105.62895 10057 ft 217 kts 300°
2026-04-26 05:22 35.36717 -105.64608 10055 ft 217 kts 299°
2026-04-26 05:23 35.37415 -105.66277 10033 ft 218 kts 299°
2026-04-26 05:23 35.38113 -105.67947 10001 ft 219 kts 300°
2026-04-26 05:23 35.38797 -105.69586 9995 ft 219 kts 299°
2026-04-26 05:23 35.39497 -105.71262 10002 ft 218 kts 299°
2026-04-26 05:24 35.40196 -105.72934 9999 ft 217 kts 299°
2026-04-26 05:24 35.40892 -105.74600 9997 ft 216 kts 298°
2026-04-26 05:24 35.41582 -105.76264 10001 ft 216 kts 299°
2026-04-26 05:24 35.42316 -105.78027 9998 ft 217 kts 299°
2026-04-26 05:25 35.43080 -105.79857 10000 ft 216 kts 299°
2026-04-26 05:25 35.43834 -105.81677 9997 ft 217 kts 299°
2026-04-26 05:25 35.44599 -105.83515 9999 ft 217 kts 298°
2026-04-26 05:25 35.45333 -105.85292 9999 ft 217 kts 299°
2026-04-26 05:26 35.46074 -105.87068 9998 ft 217 kts 298°
2026-04-26 05:26 35.46830 -105.88893 9999 ft 217 kts 299°
2026-04-26 05:26 35.47563 -105.90676 9995 ft 217 kts 298°
2026-04-26 05:26 35.48240 -105.92315 9999 ft 217 kts 298°
2026-04-26 05:27 35.48986 -105.94125 10001 ft 217 kts 299°
2026-04-26 05:27 35.49740 -105.95950 9998 ft 217 kts 298°
2026-04-26 05:27 35.50514 -105.97825 10001 ft 217 kts 298°
2026-04-26 05:27 35.51280 -105.99676 9998 ft 217 kts 298°
2026-04-26 05:28 35.52037 -106.01511 10001 ft 217 kts 298°
2026-04-26 05:28 35.52802 -106.03365 9997 ft 218 kts 299°
2026-04-26 05:28 35.53554 -106.05215 9996 ft 218 kts 294°
2026-04-26 05:28 35.53823 -106.07210 9996 ft 219 kts 273°
2026-04-26 05:29 35.53857 -106.09223 10000 ft 219 kts 271°
2026-04-26 05:29 35.53869 -106.11296 10002 ft 219 kts 270°
2026-04-26 05:29 35.53853 -106.13345 9999 ft 219 kts 269°
2026-04-26 05:29 35.53821 -106.15320 9995 ft 220 kts 269°
2026-04-26 05:30 35.53781 -106.17225 10000 ft 220 kts 269°
2026-04-26 05:30 35.53737 -106.19099 10000 ft 219 kts 269°
2026-04-26 05:30 35.53688 -106.21001 10000 ft 219 kts 268°
2026-04-26 05:30 35.53638 -106.22872 10001 ft 219 kts 268°
2026-04-26 05:31 35.53583 -106.24811 10002 ft 218 kts 268°
2026-04-26 05:31 35.53529 -106.26699 9999 ft 218 kts 268°
2026-04-26 05:31 35.53474 -106.28586 10000 ft 218 kts 268°
2026-04-26 05:31 35.53419 -106.30466 10001 ft 217 kts 268°
2026-04-26 05:32 35.53363 -106.32327 10001 ft 219 kts 268°
2026-04-26 05:32 35.53304 -106.34245 10003 ft 219 kts 268°
2026-04-26 05:32 35.53248 -106.36118 9999 ft 220 kts 268°
2026-04-26 05:32 35.53192 -106.37988 10001 ft 219 kts 268°
2026-04-26 05:33 35.53135 -106.39861 10000 ft 219 kts 268°
2026-04-26 05:33 35.53077 -106.41722 10001 ft 218 kts 268°
2026-04-26 05:33 35.53019 -106.43591 9999 ft 219 kts 268°
2026-04-26 05:33 35.52961 -106.45464 10000 ft 218 kts 268°
2026-04-26 05:34 35.52903 -106.47310 10002 ft 218 kts 268°
2026-04-26 05:34 35.52844 -106.49203 10004 ft 219 kts 268°
2026-04-26 05:34 35.52785 -106.51063 10000 ft 219 kts 268°
2026-04-26 05:34 35.52726 -106.52919 10003 ft 219 kts 268°
2026-04-26 05:35 35.52667 -106.54791 10000 ft 219 kts 268°
2026-04-26 05:35 35.52606 -106.56683 10017 ft 219 kts 268°
2026-04-26 05:35 35.52545 -106.58561 10020 ft 219 kts 268°
2026-04-26 05:35 35.52485 -106.60422 10018 ft 219 kts 268°
2026-04-26 05:36 35.52425 -106.62287 10018 ft 219 kts 268°
2026-04-26 05:36 35.52364 -106.64180 10016 ft 219 kts 268°
2026-04-26 05:36 35.52304 -106.66026 10017 ft 219 kts 268°
2026-04-26 05:36 35.52242 -106.67915 10017 ft 219 kts 268°
2026-04-26 05:37 35.52180 -106.69758 10015 ft 219 kts 268°
2026-04-26 05:37 35.52117 -106.71629 10019 ft 219 kts 268°
2026-04-26 05:37 35.52054 -106.73510 10018 ft 219 kts 268°
2026-04-26 05:37 35.51991 -106.75371 10025 ft 219 kts 268°
2026-04-26 05:38 35.51929 -106.77238 10017 ft 219 kts 268°
2026-04-26 05:38 35.51866 -106.79115 10022 ft 219 kts 268°
2026-04-26 05:38 35.51803 -106.80980 10018 ft 219 kts 268°
2026-04-26 05:38 35.51740 -106.82860 10018 ft 219 kts 268°
2026-04-26 05:39 35.51677 -106.84716 10018 ft 219 kts 268°
2026-04-26 05:39 35.51613 -106.86575 10017 ft 218 kts 268°
2026-04-26 05:39 35.51548 -106.88454 10018 ft 218 kts 268°
2026-04-26 05:39 35.51483 -106.90299 10018 ft 218 kts 268°
2026-04-26 05:40 35.51418 -106.92154 10015 ft 218 kts 268°
2026-04-26 05:40 35.51351 -106.94025 10018 ft 219 kts 268°
2026-04-26 05:40 35.51284 -106.95892 10017 ft 220 kts 268°
2026-04-26 05:40 35.51217 -106.97787 10020 ft 219 kts 268°
2026-04-26 05:41 35.51133 -106.99627 10016 ft 219 kts 267°
2026-04-26 05:41 35.51050 -107.01505 10015 ft 219 kts 267°
2026-04-26 05:41 35.50972 -107.03389 10018 ft 219 kts 267°
2026-04-26 05:41 35.50900 -107.05238 10018 ft 219 kts 267°
2026-04-26 05:42 35.50829 -107.07122 10020 ft 219 kts 268°
2026-04-26 05:42 35.50759 -107.08981 10016 ft 220 kts 268°
2026-04-26 05:42 35.50689 -107.10860 10018 ft 220 kts 268°
2026-04-26 05:42 35.50620 -107.12730 10017 ft 219 kts 268°
2026-04-26 05:43 35.50550 -107.14605 10016 ft 220 kts 268°
2026-04-26 05:43 35.50571 -107.16449 10022 ft 219 kts 277°
2026-04-26 05:43 35.50710 -107.18323 10016 ft 219 kts 277°
2026-04-26 05:43 35.50866 -107.20181 10017 ft 219 kts 277°
2026-04-26 05:44 35.51056 -107.22049 10020 ft 219 kts 277°
2026-04-26 05:44 35.51234 -107.23887 10017 ft 220 kts 277°
2026-04-26 05:44 35.51412 -107.25764 10018 ft 220 kts 277°
2026-04-26 05:44 35.51589 -107.27628 10021 ft 219 kts 277°
2026-04-26 05:45 35.51761 -107.29481 10019 ft 220 kts 277°
2026-04-26 05:45 35.51937 -107.31367 10018 ft 220 kts 277°
2026-04-26 05:45 35.52111 -107.33233 10017 ft 219 kts 277°
2026-04-26 05:45 35.52285 -107.35121 10018 ft 219 kts 277°
2026-04-26 05:46 35.52479 -107.37260 10062 ft 218 kts 277°
2026-04-26 05:46 35.52676 -107.39398 10090 ft 217 kts 277°
2026-04-26 05:46 35.52864 -107.41455 10092 ft 218 kts 277°
2026-04-26 05:46 35.53059 -107.43579 10088 ft 219 kts 277°
2026-04-26 05:47 35.53257 -107.45762 10096 ft 219 kts 277°
2026-04-26 05:47 35.53458 -107.47965 10091 ft 219 kts 277°
2026-04-26 05:47 35.53658 -107.50178 10092 ft 220 kts 277°
2026-04-26 05:47 35.53854 -107.52335 10092 ft 219 kts 277°
2026-04-26 05:48 35.54041 -107.54408 10093 ft 219 kts 277°
2026-04-26 05:48 35.54232 -107.56525 10093 ft 219 kts 277°
2026-04-26 05:48 35.54422 -107.58636 10093 ft 219 kts 277°
2026-04-26 05:48 35.54616 -107.60799 10093 ft 220 kts 277°
2026-04-26 05:49 35.54808 -107.62933 10094 ft 220 kts 277°
2026-04-26 05:49 35.55181 -107.67090 10091 ft 219 kts 277°
2026-04-26 05:49 35.55361 -107.69117 10091 ft 218 kts 277°
2026-04-26 05:50 35.55551 -107.71248 10089 ft 218 kts 277°
2026-04-26 05:50 35.55577 -107.73372 10093 ft 218 kts 262°
2026-04-26 05:50 35.55388 -107.75382 10089 ft 219 kts 262°
2026-04-26 05:50 35.55164 -107.77389 10090 ft 218 kts 261°
2026-04-26 05:51 35.54949 -107.79248 10091 ft 219 kts 261°
2026-04-26 05:51 35.54729 -107.81108 10092 ft 219 kts 261°
2026-04-26 05:51 35.54508 -107.82967 10095 ft 219 kts 261°
2026-04-26 05:51 35.54279 -107.84875 10091 ft 219 kts 261°
2026-04-26 05:52 35.54053 -107.86744 10087 ft 219 kts 261°
2026-04-26 05:52 35.53807 -107.88785 10092 ft 219 kts 261°
2026-04-26 05:52 35.53580 -107.90651 10087 ft 219 kts 261°
2026-04-26 05:52 35.53355 -107.92503 10090 ft 219 kts 261°
2026-04-26 05:53 35.53128 -107.94366 10090 ft 219 kts 261°
2026-04-26 05:53 35.52902 -107.96219 10105 ft 218 kts 261°
2026-04-26 05:53 35.52659 -107.98202 10113 ft 219 kts 261°
2026-04-26 05:53 35.52430 -108.00074 10109 ft 219 kts 261°
2026-04-26 05:54 35.52174 -108.02172 10109 ft 219 kts 261°
2026-04-26 05:54 35.51913 -108.04299 10111 ft 219 kts 261°
2026-04-26 05:54 35.51658 -108.06375 10108 ft 220 kts 261°
2026-04-26 05:54 35.51400 -108.08466 10109 ft 220 kts 261°
2026-04-26 05:55 35.51150 -108.10499 10109 ft 219 kts 261°
2026-04-26 05:55 35.50899 -108.12528 10110 ft 219 kts 261°
2026-04-26 05:55 35.50643 -108.14605 10110 ft 219 kts 261°
2026-04-26 05:55 35.50371 -108.16799 10109 ft 219 kts 261°
2026-04-26 05:56 35.50106 -108.18926 10112 ft 219 kts 261°
2026-04-26 05:56 35.49827 -108.21080 10108 ft 219 kts 261°
2026-04-26 05:56 35.49542 -108.23286 10109 ft 218 kts 261°
2026-04-26 05:56 35.49271 -108.25427 10110 ft 219 kts 261°
2026-04-26 05:57 35.49037 -108.27289 10094 ft 220 kts 261°
2026-04-26 05:57 35.48806 -108.29130 10089 ft 220 kts 261°
2026-04-26 05:57 35.48572 -108.30993 10091 ft 220 kts 261°
2026-04-26 05:57 35.48379 -108.32856 10084 ft 220 kts 270°
2026-04-26 05:58 35.48672 -108.34701 10093 ft 218 kts 291°
2026-04-26 05:58 35.49303 -108.36388 10097 ft 217 kts 301°
2026-04-26 05:58 35.50064 -108.38005 10092 ft 217 kts 303°
2026-04-26 05:58 35.50845 -108.39568 10094 ft 217 kts 305°
2026-04-26 05:59 35.51648 -108.41141 10094 ft 217 kts 304°
2026-04-26 05:59 35.52460 -108.42728 10092 ft 217 kts 304°
2026-04-26 05:59 35.53252 -108.44273 10071 ft 218 kts 304°
2026-04-26 05:59 35.54072 -108.45870 9940 ft 219 kts 304°
2026-04-26 06:00 35.54872 -108.47433 9819 ft 220 kts 305°
2026-04-26 06:00 35.55695 -108.49033 9697 ft 220 kts 304°
2026-04-26 06:00 35.56500 -108.50614 9608 ft 218 kts 302°
2026-04-26 06:00 35.56885 -108.52400 9598 ft 216 kts 274°
2026-04-26 06:01 35.56783 -108.54224 9532 ft 216 kts 260°
2026-04-26 06:01 35.56461 -108.56038 9411 ft 218 kts 256°
2026-04-26 06:01 35.56072 -108.57828 9292 ft 218 kts 254°
2026-04-26 06:01 35.55658 -108.59639 9171 ft 219 kts 253°
2026-04-26 06:02 35.55241 -108.61440 9047 ft 220 kts 253°
2026-04-26 06:02 35.54825 -108.63216 8856 ft 211 kts 253°
2026-04-26 06:02 35.54423 -108.64906 8603 ft 204 kts 253°
2026-04-26 06:02 35.54031 -108.66563 8338 ft 196 kts 252°
2026-04-26 06:03 35.53665 -108.68124 8074 ft 180 kts 253°
2026-04-26 06:03 35.53346 -108.69469 7871 ft 155 kts 252°
2026-04-26 06:03 35.53050 -108.70720 7653 ft 146 kts 252°
2026-04-26 06:03 35.52760 -108.71941 7456 ft 140 kts 252°
2026-04-26 06:04 35.52483 -108.73119 7277 ft 131 kts 252°
2026-04-26 06:04 35.52222 -108.74215 7083 ft 123 kts 251°
2026-04-26 06:04 35.51984 -108.75223 6918 ft 118 kts 252°
2026-04-26 06:04 35.51751 -108.76214 6763 ft 120 kts 252°
2026-04-26 06:05 35.51506 -108.77206 6601 ft 116 kts 252°
2026-04-26 06:05 35.51306 -108.78101 6480 ft 92 kts 250°
2026-04-26 06:05 35.51170 -108.78633 6470 ft 41 kts 257°
2026-04-26 06:05 35.51111 -108.78928 6467 ft 30 kts 249°
2026-04-26 06:06 35.51113 -108.79055 6467 ft 12 kts 344°
2026-04-26 06:06 35.51172 -108.79024 6466 ft 9 kts 67°
2026-04-26 06:06 35.51188 -108.78959 6467 ft 6 kts 74°
2026-04-26 06:06 35.51198 -108.78916 6467 ft 4 kts 74°
2026-04-26 06:07 35.51209 -108.78867 6468 ft 8 kts 75°
2026-04-26 06:07 35.51228 -108.78786 6468 ft 10 kts 74°
2026-04-26 06:07 35.51249 -108.78695 6469 ft 11 kts 73°
2026-04-26 06:07 35.51274 -108.78593 6470 ft 12 kts 74°
2026-04-26 06:08 35.51299 -108.78484 6470 ft 13 kts 73°
2026-04-26 06:08 35.51327 -108.78367 6470 ft 14 kts 75°
2026-04-26 06:08 35.51358 -108.78245 6470 ft 15 kts 70°
2026-04-26 06:08 35.51386 -108.78122 6471 ft 14 kts 72°
2026-04-26 06:09 35.51419 -108.78030 6473 ft 8 kts
2026-04-26 06:09 35.51467 -108.78054 6472 ft 8 kts 346°
2026-04-26 06:09 35.51483 -108.78049 6473 ft 0 kts 68°